SCP
0 0 0 0 0 0 0 0 0 0 0 0 0 0 0 0 0 0 0 0 0 0 0 0 0 0 0
0 0 0 0 0 0 0 0 0 0 0 0 0 0 0 0 0 0 0 0 0 0 0 0 0 0 0
0 0 0 0 0 0 0 0 0 0 0 0 0 0 0 0 0 0 0 0 0 0 0 0 0 0 0
0 0 0 0 0 0 0 0 0 0 0 0 0 0 0 0 0 0 0 0 0 0 0 0 0 0 0
0 0 0 0 0 0 0 0 0 0 0 0 0 0 0 0 0 0 0 0 0 0 0 0 0 0 0
0 0 0 0 0 0 0 0 0 0 0 0 0 0 0 0 0 0 0 0 0 0 0 0 0 0 0
0 0 0 0 0 0 0 0 0 0 0 0 0 0 0 0 0 0 0 0 0 0 0 0 0 0 0
0 0 0 0 0 0 0 0 0 0 0 0 0 0 0 0 0 0 0 0 0 0 0 0 0 0 0
0 0 0 0 0 0 0 0 0 0 0 0 0 0 0 0 0 0 0 0 0 0 0 0 0 0 0
0 0 0 0 0 0 0 0 0 0 0 0 0 0 0 0 0 0 0 0 0 0 0 0 0 0 0
0 0 0 0 0 0 0 0 0 0 0 0 0 0 0 0 0 0 0 0 0 0 0 0 0 0 0
0 0 0 0 0 0 0 0 0 0 0 0 0 0 0 0 0 0 0 0 0 0 0 0 0 0 0
0 0 0 0 0 0 0 0 0 0 0 0 0 0 0 0 0 0 0 0 0 0 0 0 0 0 0
0 0 0 0 0 0 0 0 0 0 0 0 0 0 0 0 0 0 0 0 0 0 0 -0 0 0 0
0 0 0 0 0 0 0 0 0 0 0 0 0 0 0 0 0 0 0 0 0 0 0 0 0 0 0
0 0 0 0 0 0 0 0 0 0 0 0 0 0 0 0 0 0 0 0 0 0 0 0 0 0 -0
Wind_Speed_500mb
29 28 27 27 26 23 19 17 16 15 15 13 14 16 16 18 18 19 17 17 16 13 8 4 3 4 5
25 29 31 30 28 26 24 21 19 20 20 21 20 18 18 18 18 17 16 17 17 16 12 7 4 3 5
22 26 29 31 31 28 25 23 21 24 29 24 22 21 20 22 21 21 18 17 16 15 14 12 10 8 8
21 22 24 26 26 25 28 29 25 28 28 24 22 24 24 24 27 27 21 18 17 16 15 15 15 14 13
23 20 20 20 21 26 26 24 27 30 28 26 27 25 26 26 28 31 34 26 21 20 19 19 18 17 17
26 23 18 15 17 21 25 23 21 27 32 28 27 28 27 28 30 30 34 36 25 23 22 22 22 22 21
29 30 23 16 13 17 19 24 28 23 27 30 28 31 25 26 32 33 34 37 34 29 25 26 27 27 27
22 30 25 17 15 14 15 19 23 25 26 27 29 31 31 31 28 30 32 31 32 33 28 30 30 31 32
19 32 32 26 21 15 7 4 9 17 18 18 20 24 24 25 31 31 35 36 35 34 33 34 30 32 35
15 26 28 23 17 11 8 14 16 16 19 16 19 21 23 24 27 28 32 33 31 34 36 33 36 37 36
24 23 24 22 22 13 9 9 13 15 15 22 22 23 27 29 34 34 36 35 38 42 37 35 36 38 42
28 27 25 25 24 16 10 5 4 8 13 17 20 21 24 26 27 24 26 26 25 27 33 35 38 38 48
27 27 26 26 26 18 11 5 3 7 11 16 17 18 20 25 26 24 26 28 33 38 44 48 45 47 43
40 41 38 34 31 24 19 14 12 9 8 6 7 11 15 16 21 24 27 25 28 34 36 44 35 50 45
42 40 38 35 35 29 26 22 21 20 18 16 13 11 12 14 15 19 22 25 27 27 29 24 20 17 51
33 29 25 26 24 28 25 24 22 22 23 22 23 23 21 22 21 24 25 23 24 27 23 22 23 30 27
Wind_Direction_500mb
231 233 232 233 242 253 258 259 256 270 292 298 308 315 322 335 345 356 352 342 334 330 329 334 332 334 333
233 230 232 239 248 250 252 255 261 264 273 279 289 293 302 313 323 340 348 343 334 330 326 320 310 312 323
238 237 235 232 240 245 249 250 250 258 263 269 281 285 296 305 308 315 330 336 323 320 311 304 303 306 308
231 237 237 234 235 238 241 240 237 245 256 269 278 281 291 297 307 309 306 319 319 308 297 292 292 296 297
229 228 236 236 231 232 244 248 254 252 258 267 276 286 288 290 300 311 317 309 313 308 297 287 283 284 287
236 220 224 235 233 238 249 248 267 265 264 272 275 281 292 296 295 303 311 317 304 300 294 285 281 280 281
231 225 203 206 214 228 248 255 253 258 275 273 280 279 291 293 294 294 299 304 310 300 297 290 281 275 274
220 214 203 199 205 204 205 233 249 253 251 262 274 284 288 288 295 294 296 302 303 299 295 295 290 283 278
186 188 190 192 197 194 190 236 240 237 239 250 255 262 265 280 283 298 298 294 294 300 302 301 296 291 286
155 175 183 181 181 180 236 257 264 270 269 262 250 258 271 277 273 280 280 278 287 287 285 290 299 299 300
115 135 146 142 133 152 206 255 275 282 289 282 293 295 292 288 283 283 280 286 285 281 277 277 281 295 305
102 114 125 128 128 139 151 161 249 282 277 282 286 293 295 299 295 301 295 297 288 291 297 298 294 294 295
101 109 114 113 109 117 102 77 318 300 297 301 296 298 292 289 295 306 308 307 304 303 302 297 298 303 299
90 89 90 94 97 91 83 77 70 62 47 15 334 311 306 304 295 300 305 318 322 323 324 320 312 300 294
82 83 85 87 91 94 86 79 67 57 49 41 34 24 3 351 332 329 317 309 308 310 324 329 324 301 307
88 91 89 86 74 79 70 64 60 53 47 46 40 36 34 28 17 16 7 358 343 333 325 314 313 310 319
Wind_Speed_850mb
29 28 27 27 26 23 19 17 16 15 15 13 14 16 16 18 18 19 17 17 16 13 8 4 3 4 5
25 29 31 30 28 26 24 21 19 20 20 21 20 18 18 18 18 17 16 17 17 16 12 7 4 3 5
22 26 29 31 31 28 25 23 21 24 29 24 22 21 20 22 21 21 18 17 16 15 14 12 10 8 8
21 22 24 26 26 25 28 29 25 28 28 24 22 24 24 24 27 27 21 18 17 16 15 15 15 14 13
23 20 20 20 21 26 26 24 27 30 28 26 27 25 26 26 28 31 34 26 21 20 19 19 18 17 17
26 23 18 15 17 21 25 23 21 27 32 28 27 28 27 28 30 30 34 36 25 23 22 22 22 22 21
29 30 23 16 13 17 19 24 28 23 27 30 28 31 25 26 32 33 34 37 34 29 25 26 27 27 27
22 30 25 17 15 14 15 19 23 25 26 27 29 31 31 31 28 30 32 31 32 33 28 30 30 31 32
19 32 32 26 21 15 7 4 9 17 18 18 20 24 24 25 31 31 35 36 35 34 33 34 30 32 35
15 26 28 23 17 11 8 14 16 16 19 16 19 21 23 24 27 28 32 33 31 34 36 33 36 37 36
24 23 24 22 22 13 9 9 13 15 15 22 22 23 27 29 34 34 36 35 38 42 37 35 36 38 42
28 27 25 25 24 16 10 5 4 8 13 17 20 21 24 26 27 24 26 26 25 27 33 35 38 38 48
27 27 26 26 26 18 11 5 3 7 11 16 17 18 20 25 26 24 26 28 33 38 44 48 45 47 43
40 41 38 34 31 24 19 14 12 9 8 6 7 11 15 16 21 24 27 25 28 34 36 44 35 50 45
42 40 38 35 35 29 26 22 21 20 18 16 13 11 12 14 15 19 22 25 27 27 29 24 20 17 51
33 29 25 26 24 28 25 24 22 22 23 22 23 23 21 22 21 24 25 23 24 27 23 22 23 30 27
Wind_Direction_850mb
231 233 232 233 242 253 258 259 256 270 292 298 308 315 322 335 345 356 352 342 334 330 329 334 332 334 333
233 230 232 239 248 250 252 255 261 264 273 279 289 293 302 313 323 340 348 343 334 330 326 320 310 312 323
238 237 235 232 240 245 249 250 250 258 263 269 281 285 296 305 308 315 330 336 323 320 311 304 303 306 308
231 237 237 234 235 238 241 240 237 245 256 269 278 281 291 297 307 309 306 319 319 308 297 292 292 296 297
229 228 236 236 231 232 244 248 254 252 258 267 276 286 288 290 300 311 317 309 313 308 297 287 283 284 287
236 220 224 235 233 238 249 248 267 265 264 272 275 281 292 296 295 303 311 317 304 300 294 285 281 280 281
231 225 203 206 214 228 248 255 253 258 275 273 280 279 291 293 294 294 299 304 310 300 297 290 281 275 274
220 214 203 199 205 204 205 233 249 253 251 262 274 284 288 288 295 294 296 302 303 299 295 295 290 283 278
186 188 190 192 197 194 190 236 240 237 239 250 255 262 265 280 283 298 298 294 294 300 302 301 296 291 286
155 175 183 181 181 180 236 257 264 270 269 262 250 258 271 277 273 280 280 278 287 287 285 290 299 299 300
115 135 146 142 133 152 206 255 275 282 289 282 293 295 292 288 283 283 280 286 285 281 277 277 281 295 305
102 114 125 128 128 139 151 161 249 282 277 282 286 293 295 299 295 301 295 297 288 291 297 298 294 294 295
101 109 114 113 109 117 102 77 318 300 297 301 296 298 292 289 295 306 308 307 304 303 302 297 298 303 299
90 89 90 94 97 91 83 77 70 62 47 15 334 311 306 304 295 300 305 318 322 323 324 320 312 300 294
82 83 85 87 91 94 86 79 67 57 49 41 34 24 3 351 332 329 317 309 308 310 324 329 324 301 307
88 91 89 86 74 79 70 64 60 53 47 46 40 36 34 28 17 16 7 358 343 333 325 314 313 310 319